AirNav   Bose A20 Aviation Headset
 
 332 users online  

PAAN Gold King Creek Airport
Fairbanks, Alaska, USA

GOING TO FAIRBANKS?


FAA INFORMATION EFFECTIVE 11 OCTOBER 2018

Location

FAA Identifier: AK7
Lat/Long: 64-11-53.0000N / 147-55-43.0000W
64-11.883333N / 147-55.716667W
64.1980556 / -147.9286111
(estimated)
Elevation: 1720 ft. / 524 m (estimated)
Variation: 25E (1965)
From city: 39 miles SE of FAIRBANKS, AK
Time zone: UTC -8 (UTC -9 during Standard Time)
Zip code: 99743

Airport Operations

Airport use: Open to the public
Activation date: 02/2001
Control tower: no
ARTCC: ANCHORAGE CENTER
FSS: FAIRBANKS FLIGHT SERVICE STATION [907-474-0788]
NOTAMs facility: FAI (NOTAM-D service available)
Attendance: UNATNDD
Wind indicator: yes
Segmented circle: no

Airport Communications

CTAF: 122.9

Nearby radio navigation aids

VOR radial/distance  VOR name  Freq  Var
FAIr156/36.2FAIRBANKS VORTAC108.6021E
ENNr107/37.9NENANA VORTAC115.8021E

 
NDB name  Hdg/Dist  Freq  Var  ID
ICE POOL107/36.452518EICW .. -.-. .--

Airport Services

Runway Information

Runway 9/27

Dimensions: 2558 x 17 ft. / 780 x 5 m
Surface: gravel/dirt, in fair condition
ROCKS UP TO 6 INCHES ON RY SFC.
RUNWAY 9  RUNWAY 27
Latitude: 64-11.993708N64-11.772323N
Longitude: 147-56.125273W147-55.307022W
Traffic pattern: leftleft
Runway heading: 097 magnetic, 122 true277 magnetic, 302 true
Obstructions: 32 ft. trees25 ft. brush, 90 ft. left and right of centerline

Airport Ownership and Management from official FAA records

Ownership: Publicly-owned
Owner: ALASKA DOT&PF NORTHERN REGION
2301 PEGER ROAD
FAIRBANKS, AK 99709
Phone 907-451-2200
Manager: TOM WILLIAMS
2301 PEGER ROAD
FAIRBANKS, AK 99709
Phone (907) 451-5280

Airport Operational Statistics

Aircraft based on the field: 1
Single engine airplanes: 1
    
Aircraft operations: 50/year *
100% local general aviation
* for 12-month period ending 31 December 2014

Additional Remarks

RY CONDITION NOT MONITORED; RECOMMEND VISUAL INSP PRIOR TO LANDING.
NO SVCS AVBL.
40 FT TREES ON BOTH SIDES OF RY WITHIN 50 FT OF CENTERLINE.
RY SUITABLE FOR HIGH WING ACFT ONLY.
RY 27 HAS A 500 FT SAFETY AREA WITH TREES UP TO 3 FT GROWING ON SFC.

Instrument Procedures

There are no published instrument procedures at PAAN.

Some nearby airports with instrument procedures:

PAHV - Healy River Airport (34 nm SW)
PAEI - Eielson Air Force Base (35 nm NE)
PANN - Nenana Municipal Airport (36 nm NW)
PAFA - Fairbanks International Airport (37 nm N)
PAFB - Ladd Army Airfield (39 nm N)
 
Loc | Ops | Rwys | IFR | FBO | Links
Com | Nav | Svcs | Stats | Notes

Crowley
 
Area around PAAN (Gold King Creek Airport)
 
Road maps at: MapQuest Bing Google
 
Aerial photo
WARNING: Photo may not be current or correct
Aerial photo of PAAN (Gold King Creek Airport)
Photo taken 18-Feb-2012
looking west.

Do you have a better or more recent aerial photo of Gold King Creek Airport that you would like to share? If so, please send us your photo.

 
Sectional chart

 
Airport distance calculator
Flying to Gold King Creek Airport? Find the distance to fly.

From to PAAN

Sunrise and sunset
Times for 21-Oct-2018
 Local
(UTC-8)
 Zulu
(UTC)
Morning civil twilight08:1216:12
Sunrise09:0217:02
Sunset18:1102:11
Evening civil twilight19:0103:01

Current date and time
Zulu (UTC)  21-Oct-2018 08:43:26
Local (UTC-8)  21-Oct-2018 00:43:26
 
METAR
PAEI 
35nm NE 
210813Z AUTO 00000KT 5/8SM R14/2600V4500FT BR FEW000 M03/M04 A2961 RMK AO2 SLPNO VISNO RWY32 $
PANN 
37nm NW 
210753Z AUTO 05009KT 10SM OVC008 02/01 A2961 RMK AO2 SLP034 T00220011 TSNO $
PAFA 
37nm N 
210753Z 04006KT 10SM FEW050 SCT090 M02/M02 A2963 RMK AO2 SLP040 T10171022 $
PAIN 
38nm SW 
210756Z AUTO 00000KT 10SM CLR 02/M02 A2958 RMK AO2 SLP043 T00171022 FZRANO
PAFB 
39nm N 
210758Z AUTO 00000KT 10SM CLR M02/M02 A2965 RMK AO2 SLPNO T10191021 $
TAF
PAEI 
35nm NE 
210748Z 2107/2210 VRB06KT 8000 BR SCT015 BKN060 BKN200 620604 QNH2940INS TEMPO 2107/2111 0800 FZFG BECMG 2120/2121 13012G18KT 9999 NSW SCT080 SCT120 QNH2938INS TX05/2200Z TNM05/2109Z
PAFA 
37nm N 
210528Z 2106/2212 35005KT P6SM FEW015 SCT080 SCT090 FM211200 03006KT P6SM VCFG SCT004 SCT015 BKN070 FM211900 04003KT P6SM BKN250
NOTAMs
Click for the latest NOTAMs
NOTAMs are issued by the DoD/FAA and will open in a separate window not controlled by AirNav.

 

 
 

Would you like to see your business listed on this page?

 If your business provides an interesting product or service to pilots, flight crews, aircraft, or users of the Gold King Creek Airport, you should consider listing it here.  To start the listing process, click on the button below
 
Add a business
 

Other Pages about Gold King Creek Airport

Update a link
 
Copyright © AirNav, LLC. All rights reserved. Privacy Policy  Contact